Regional Weather Roundup
Issued by NWS Charleston, WV

Home | Current Version | Previous Version | Graphics & Text | Print | Product List | Glossary On
Versions: 1 2 3 4 5 6 7 8 9 10 11 12 13 14 15 16 17 18 19 20 21 22 23 24 25 26 27 28 29 30 31 32 33 34 35 36 37 38 39 40 41 42 43 44 45 46 47 48 49 50
000
ASUS41 KRLX 200510
RWRRLX
West Virginia Regional Weather Roundup
National Weather Service Charleston WV
100 AM EDT FRI APR 20 2018

Note: "fair" indicates few or no clouds below 12,000 feet with no
significant weather and/or obstructions to visibility.

WVZ003-200600-
Northern Panhandle of West Virginia

CITY           SKY/WX    TMP DP  RH WIND       PRES   REMARKS
WHEELING       FAIR      34  20  56 N16G22    30.27R
$$

WVZ009-200600-
Northwest West Virginia

CITY           SKY/WX    TMP DP  RH WIND       PRES   REMARKS
PARKERSBURG    FAIR      39  29  67 N3        30.30R
$$

WVZ006-200600-
Western West Virginia

CITY           SKY/WX    TMP DP  RH WIND       PRES   REMARKS
HUNTINGTON       N/A    N/A N/A N/A MISG      30.30R
$$

WVZ015-200600-
West Central West Virginia

CITY           SKY/WX    TMP DP  RH WIND       PRES   REMARKS
CHARLESTON     FAIR      37  31  78 SW3       30.28S
$$

WVZ022-031-200600-
North Central West Virginia

CITY           SKY/WX    TMP DP  RH WIND       PRES   REMARKS
CLARKSBURG     FAIR      40  25  55 N12       30.26R
MORGANTOWN     FAIR      36  23  59 NW3       30.26R
$$

WVZ025-035-042-045-200600-
Southern West Virginia

CITY           SKY/WX    TMP DP  RH WIND       PRES   REMARKS
BECKLEY        FAIR      33  25  72 W7        30.23F
LOGAN          FAIR      37  28  70 CALM      30.28S
BLUEFIELD      FAIR      32  24  72 W6        30.25S
LEWISBURG      FAIR      37  27  67 W5        30.22S
$$

WVZ047-200600-
Northern Mountains of West Virginia

CITY           SKY/WX    TMP DP  RH WIND       PRES   REMARKS
ELKINS         MOCLDY    38  26  62 NW7       30.21R
$$

WVZ052-200600-
Eastern Panhandle of West Virginia

CITY           SKY/WX    TMP DP  RH WIND       PRES   REMARKS
MARTINSBURG    FAIR      40  21  46 NW10      30.16R
PETERSBURG     MOCLDY    42  27  55 NW10G17   30.20R
$$



USA.gov is the U.S. government's official web portal to all federal, state and local government web resources and services.